Thursday, June 30, 2016
05:00 UTC
  |  Log In   |  Register Free
Airport Search:

Caruthersville Memorial Airport
(M05)

Caruthersville Memorial Airport Diagram
No Airport Diagram Available

FAA data valid effective May 26 2016 - Jul 21 2016 (unless otherwise noted).

 
 
 
 
 
 
 
 
 
 
 
 
 
 
Current Aviation Weather for M05

Weather Summary


Current weather conditions are not available for M05 - The nearest NOAA weather station is at HKA, (15.6 nm SW from M05)

The most recent METAR observation for M05 was updated at: 21:55 UTC
METAR for M05 is not available. Closest METAR is for KHKA 15.6 nm NE
KHKA  (15.6 nm NE)   (most recent observation was updated at 30:04 UTC)
300453Z AUTO 07003KT 10SM CLR 23/17 A3004 RMK AO2 SLP169 T02280167

KDYR  (16.6 nm NW)   (most recent observation was updated at 30:04 UTC)
300455Z AUTO 00000KT 10SM CLR 21/17 A3005 RMK AO1

TAF for M05 is not available.
GlobalAir.com is loading additional information.
 Current Weather at HKA
73.0 F° (22.8 C°)

North winds at 0.0 mph
Pressure:
30.03 in
Humidity:
74%
Wind:
North at 0.0 mph
Dew Point:
64.0 F° (17.8 C°)
Visibility:
10.00 mi
M05 NOAA Radar




Find All Airport Services Find A Hotel Find A Rental Car Find A Golf Course Find A Restaurant $100 Hamburger



Airport Weather Forecast for M05

Translated METAR for KHKA (0453 UTC)
METAR:
KHKA 300453Z AUTO 07003KT 10SM CLR 23/17 A3004 RMK AO2 SLP169 T02280167
Conditions at:
KHKA (Blytheville Muni, AR) observed 0453 UTC 30 June 2016
Temperature:
23°C (73.4°F)
Dewpoint:
17°C (62.6°F) [RH = 69]
Pressure:
30.04 inches Hg (1017.3 mb)
pressure at sea level is 169 in Hg
Winds:
from the ENE (070 degrees) at 3.5 mph (3 knots: 1.5 m/s)
Visibility:
10 mile(s)
Ceiling:
at least 12,000 feet AGL
Clouds:
Clear below 12,000 feet AGL
Remarks:
site is un-manned
site is automated and HAS a precipitation sensor

Translated TAF for TAF for M05 is not available. Refer to local area forecast.
FBO's on the Field
FBO Company Facility Photos Services Transportation Aviation Fuel Prices: Prices include tax
Catering Weather Repair Courtesy Rental Type 100LL JetA JetA+ MOGAS 8087
 
Add another FBO Facility Photos Catering Weather Repair Courtesy Rental Type 100LL JetA JetA+ MOGAS 8087
Services Transportation Aviation Fuel Prices: Prices include tax
There are no FBO's currently reporting fuel at M05. List your FBO now


model-print
model-print
model-print
model-print